KI6IKQ Weather Reports


time (UTC)temp
C
wind
direction
speed
KPH
gust
KPH
rain 1hr
cm
rain 24hr
cm
rain mn
cm
humidity
%
barometer
mb
20260509203603 30 323 8.0 19.3 0.00 0.00 0.00 45 1012.1
20260509202703 30 325 8.0 20.9 0.00 0.00 0.00 45 1012.2
20260509201803 30 313 9.7 16.1 0.00 0.00 0.00 47 1012.4
20260509200903 30 323 9.7 20.9 0.00 0.00 0.00 47 1012.4
20260509200003 29 320 8.0 17.7 0.00 0.00 0.00 47 1012.5
20260509195403 29 323 9.7 17.7 0.00 0.00 0.00 47 1012.5
20260509194503 29 317 6.4 14.5 0.00 0.00 0.00 47 1012.7
20260509193603 28 318 8.0 16.1 0.00 0.00 0.00 48 1012.8
20260509192703 28 319 6.4 16.1 0.00 0.00 0.00 51 1013.0
20260509191803 28 319 8.0 16.1 0.00 0.00 0.00 50 1013.2
20260509190903 27 321 6.4 17.7 0.00 0.00 0.00 52 1013.1
20260509190003 27 323 6.4 14.5 0.00 0.00 0.00 53 1013.2
20260509185403 27 310 8.0 16.1 0.00 0.00 0.00 53 1013.3
20260509184503 26 322 8.0 16.1 0.00 0.00 0.00 54 1013.4
20260509183603 26 319 8.0 16.1 0.00 0.00 0.00 55 1013.4
20260509182703 26 314 6.4 19.3 0.00 0.00 0.00 56 1013.3
20260509181803 26 307 6.4 16.1 0.00 0.00 0.00 57 1013.5
20260509180903 25 312 6.4 17.7 0.00 0.00 0.00 56 1013.6
20260509180024 25 301 6.4 12.9 0.00 0.00 0.00 56 1013.6
20260509175403 25 304 6.4 14.5 0.00 0.00 0.00 56 1013.8
20260509174503 25 310 6.4 14.5 0.00 0.00 0.00 55 1013.9
20260509173624 25 307 4.8 14.5 0.00 0.00 0.00 57 1013.7
20260509172703 24 297 4.8 12.9 0.00 0.00 0.00 56 1013.7
20260509171803 24 306 6.4 12.9 0.00 0.00 0.00 57 1013.7
20260509170903 23 313 4.8 12.9 0.00 0.00 0.00 58 1013.7
20260509170003 23 281 4.8 14.5 0.00 0.00 0.00 60 1013.8
20260509165403 22 260 4.8 8.0 0.00 0.00 0.00 59 1013.8
20260509164506 22 301 3.2 11.3 0.00 0.00 0.00 60 1013.9
20260509163624 22 299 3.2 6.4 0.00 0.00 0.00 62 1013.9
20260509162724 21 311 4.8 11.3 0.00 0.00 0.00 64 1013.9
20260509161824 21 328 3.2 8.0 0.00 0.00 0.00 65 1013.9
20260509160924 20 292 3.2 9.7 0.00 0.00 0.00 66 1013.8
20260509160026 20 327 3.2 6.4 0.00 0.00 0.00 68 1014.0
20260509155403 20 353 3.2 6.4 0.00 0.00 0.00 69 1014.0
20260509154503 20 30 3.2 6.4 0.00 0.00 0.00 70 1013.9
20260509153603 19 30 1.6 6.4 0.00 0.00 0.00 72 1013.9
20260509152703 18 30 3.2 4.8 0.00 0.00 0.00 74 1013.9
20260509151824 18 33 3.2 6.4 0.00 0.00 0.00 75 1014.0
20260509150924 17 35 1.6 6.4 0.00 0.00 0.00 76 1014.1
20260509150024 17 280 3.2 6.4 0.00 0.00 0.00 77 1014.2
20260509145424 17 254 3.2 6.4 0.00 0.00 0.00 78 1014.1
20260509144524 16 236 3.2 6.4 0.00 0.00 0.00 79 1014.0
20260509143626 16 219 1.6 6.4 0.00 0.00 0.00 81 1014.0
20260509142724 15 181 1.6 3.2 0.00 0.00 0.00 83 1013.9
20260509141824 14 180 1.6 3.2 0.00 0.00 0.00 85 1013.9
20260509140924 13 279 1.6 4.8 0.00 0.00 0.00 86 1013.9
20260509140024 13 290 1.6 4.8 0.00 0.00 0.00 86 1013.8
20260509135424 12 290 1.6 6.4 0.00 0.00 0.00 87 1013.7
20260509134503 12 290 1.6 6.4 0.00 0.00 0.00 87 1013.6
20260509133603 12 292 0.0 1.6 0.00 0.00 0.00 86 1013.6
20260509132703 12 294 0.0 1.6 0.00 0.00 0.00 85 1013.6
20260509131803 12 295 1.6 3.2 0.00 0.00 0.00 85 1013.5
20260509130903 12 294 0.0 3.2 0.00 0.00 0.00 84 1013.4
20260509130024 12 294 0.0 1.6 0.00 0.00 0.00 83 1013.2
20260509125424 12 293 0.0 3.2 0.00 0.00 0.00 83 1013.2
20260509124524 12 296 1.6 4.8 0.00 0.00 0.00 83 1013.2
20260509123624 12 277 1.6 3.2 0.00 0.00 0.00 83 1013.3
20260509122724 12 258 1.6 3.2 0.00 0.00 0.00 84 1013.2
20260509121803 12 269 1.6 6.4 0.00 0.00 0.00 85 1013.1
20260509120924 12 287 1.6 3.2 0.00 0.00 0.00 85 1013.1
20260509120024 12 294 1.6 6.4 0.00 0.00 0.00 85 1013.2
20260509115424 12 303 1.6 3.2 0.00 0.00 0.00 84 1013.1
20260509114524 12 288 1.6 3.2 0.00 0.00 0.00 84 1013.1
20260509113624 12 293 1.6 3.2 0.00 0.00 0.00 84 1013.1
20260509112703 12 310 1.6 3.2 0.00 0.00 0.00 83 1013.1
20260509111803 12 301 1.6 3.2 0.00 0.00 0.00 83 1013.1
20260509110903 12 322 1.6 3.2 0.00 0.00 0.00 83 1013.2
20260509110003 12 315 1.6 3.2 0.00 0.00 0.00 83 1013.3
20260509105403 12 311 1.6 3.2 0.00 0.00 0.00 83 1013.2
20260509104503 12 319 1.6 3.2 0.00 0.00 0.00 83 1013.2
20260509103603 12 328 1.6 3.2 0.00 0.00 0.00 82 1013.3
20260509102724 12 322 0.0 3.2 0.00 0.00 0.00 82 1013.4
20260509101803 12 326 1.6 3.2 0.00 0.00 0.00 85 1013.4
20260509100903 13 321 1.6 4.8 0.00 0.00 0.00 82 1013.5
20260509100004 13 299 1.6 3.2 0.00 0.00 0.00 82 1013.5
20260509095424 13 307 1.6 3.2 0.00 0.00 0.00 82 1013.6
20260509094503 13 333 1.6 3.2 0.00 0.00 0.00 82 1013.6
20260509093604 13 323 1.6 3.2 0.00 0.00 0.00 81 1013.6
20260509092703 13 321 1.6 3.2 0.00 0.00 0.00 81 1013.6
20260509091803 13 307 1.6 4.8 0.00 0.00 0.00 81 1013.7
20260509090903 13 313 1.6 3.2 0.00 0.00 0.00 80 1013.7
20260509090024 13 316 1.6 3.2 0.00 0.00 0.00 80 1013.7
20260509085403 13 313 1.6 3.2 0.00 0.00 0.00 80 1013.7
20260509084503 13 324 1.6 4.8 0.00 0.00 0.00 80 1013.7
20260509083603 13 328 1.6 4.8 0.00 0.00 0.00 79 1013.8
20260509082703 13 314 1.6 3.2 0.00 0.00 0.00 79 1013.9
20260509081803 14 307 1.6 3.2 0.00 0.00 0.00 78 1013.7
20260509080903 14 311 1.6 3.2 0.00 0.00 0.00 77 1013.6
20260509080024 14 316 1.6 3.2 0.00 0.00 0.00 77 1013.6
20260509075425 14 305 1.6 3.2 0.00 0.00 0.00 76 1013.6
20260509074524 15 313 1.6 4.8 0.00 0.00 0.00 76 1013.7
20260509073603 15 319 1.6 4.8 0.00 0.00 0.00 75 1013.7
20260509072703 15 304 1.6 3.2 0.00 0.00 0.00 74 1013.7
20260509071803 15 303 1.6 3.2 0.00 0.00 0.00 73 1013.7
20260509070903 15 299 0.0 3.2 0.00 0.00 0.00 72 1013.5
20260509070003 15 295 1.6 3.2 0.00 0.00 0.00 72 1013.5
20260509065403 16 285 1.6 4.8 0.00 0.00 0.00 71 1013.5
20260509064503 16 270 1.6 6.4 0.00 0.00 0.00 71 1013.5
20260509063603 16 256 0.0 4.8 0.00 0.00 0.00 70 1013.5
20260509062703 16 277 0.0 3.2 0.00 0.00 0.00 70 1013.5
20260509061803 16 262 1.6 4.8 0.00 0.00 0.00 70 1013.6
20260509060903 16 259 1.6 8.0 0.00 0.00 0.00 70 1013.5
20260509060003 16 253 1.6 11.3 0.00 0.00 0.00 70 1013.6
20260509055403 16 243 1.6 9.7 0.00 0.00 0.00 70 1013.6
20260509054503 16 248 1.6 6.4 0.00 0.00 0.00 70 1013.7
20260509053603 17 246 1.6 6.4 0.00 0.00 0.00 69 1013.7
20260509052703 17 250 1.6 4.8 0.00 0.00 0.00 68 1013.8
20260509051804 17 246 3.2 6.4 0.00 0.00 0.00 68 1013.8
20260509050903 17 247 3.2 8.0 0.00 0.00 0.00 68 1013.7
20260509050003 17 250 3.2 6.4 0.00 0.00 0.00 68 1013.7
20260509045424 17 249 3.2 6.4 0.00 0.00 0.00 68 1013.7
20260509044524 18 252 1.6 6.4 0.00 0.00 0.00 68 1013.5
20260509043624 18 251 3.2 9.7 0.00 0.00 0.00 67 1013.6
20260509042724 18 244 3.2 9.7 0.00 0.00 0.00 67 1013.6
20260509041824 18 246 3.2 6.4 0.00 0.00 0.00 66 1013.6
20260509040924 19 255 3.2 6.4 0.00 0.00 0.00 65 1013.6
20260509040024 19 255 1.6 4.8 0.00 0.00 0.00 65 1013.4
20260509035424 20 256 3.2 8.0 0.00 0.00 0.00 64 1013.4
20260509034524 20 245 3.2 8.0 0.00 0.00 0.00 63 1013.3
20260509033625 20 245 3.2 9.7 0.00 0.00 0.00 63 1013.3
20260509032703 20 245 3.2 9.7 0.00 0.00 0.00 62 1013.1
20260509031803 21 248 3.2 8.0 0.00 0.00 0.00 60 1013.1
20260509030903 21 246 3.2 9.7 0.00 0.00 0.00 59 1013.1
20260509030003 22 249 3.2 9.7 0.00 0.00 0.00 56 1013.1
20260509025405 22 250 3.2 9.7 0.00 0.00 0.00 55 1013.2
20260509024503 23 253 3.2 11.3 0.00 0.00 0.00 53 1013.0
20260509023603 24 250 4.8 11.3 0.00 0.00 0.00 50 1012.9
20260509022703 25 263 4.8 14.5 0.00 0.00 0.00 50 1013.1
20260509021803 25 276 4.8 12.9 0.00 0.00 0.00 48 1013.1
20260509020903 25 275 4.8 17.7 0.00 0.00 0.00 47 1013.0
20260509020003 26 258 4.8 20.9 0.00 0.00 0.00 45 1013.1
20260509015424 26 258 4.8 20.9 0.00 0.00 0.00 44 1013.0
20260509014503 27 258 4.8 16.1 0.00 0.00 0.00 44 1013.0
20260509013603 27 267 6.4 16.1 0.00 0.00 0.00 41 1013.0
20260509012703 28 281 4.8 14.5 0.00 0.00 0.00 41 1013.0
20260509011803 29 280 6.4 19.3 0.00 0.00 0.00 40 1013.0
20260509010903 29 284 6.4 17.7 0.00 0.00 0.00 40 1012.9
20260509010003 30 299 4.8 16.1 0.00 0.00 0.00 41 1012.9
20260509005424 29 313 6.4 16.1 0.00 0.00 0.00 42 1013.1
20260509004524 29 321 8.0 17.7 0.00 0.00 0.00 47 1013.1
20260509003603 29 319 8.0 17.7 0.00 0.00 0.00 47 1013.1
20260509002704 29 325 9.7 16.1 0.00 0.00 0.00 47 1013.1
20260509001824 30 325 8.0 17.7 0.00 0.00 0.00 47 1013.1
20260509000903 30 311 8.0 17.7 0.00 0.00 0.00 48 1013.1
20260509000003 30 314 8.0 22.5 0.00 0.00 0.00 47 1013.1
20260508235403 29 320 9.7 22.5 0.00 0.00 0.00 46 1013.2
20260508234503 29 324 8.0 16.1 0.00 0.00 0.00 48 1013.4
20260508233604 29 314 8.0 16.1 0.00 0.00 0.00 48 1013.5
20260508232703 29 314 8.0 16.1 0.00 0.00 0.00 49 1013.6
20260508231803 29 324 8.0 20.9 0.00 0.00 0.00 50 1013.6
20260508230924 28 306 8.0 20.9 0.00 0.00 0.00 49 1013.7
20260508230024 28 317 9.7 19.3 0.00 0.00 0.00 49 1014.0
20260508225424 28 315 9.7 17.7 0.00 0.00 0.00 49 1014.1
20260508224524 28 324 8.0 19.3 0.00 0.00 0.00 49 1014.2
20260508223624 29 323 9.7 22.5 0.00 0.00 0.00 48 1014.3
20260508222724 29 318 8.0 20.9 0.00 0.00 0.00 49 1014.4
20260508221803 28 321 9.7 19.3 0.00 0.00 0.00 46 1014.4
20260508220903 28 325 8.0 17.7 0.00 0.00 0.00 48 1014.5
20260508220003 28 324 8.0 17.7 0.00 0.00 0.00 49 1014.7
20260508215403 28 320 8.0 19.3 0.00 0.00 0.00 49 1014.7
20260508214503 28 323 9.7 19.3 0.00 0.00 0.00 48 1014.8
20260508213603 28 318 8.0 17.7 0.00 0.00 0.00 47 1015.0
20260508212703 28 307 8.0 17.7 0.00 0.00 0.00 48 1015.2
20260508211803 27 313 6.4 17.7 0.00 0.00 0.00 48 1015.2
20260508210924 27 320 8.0 17.7 0.00 0.00 0.00 48 1015.2
20260508210024 27 315 8.0 17.7 0.00 0.00 0.00 50 1015.3
20260508205424 27 318 8.0 17.7 0.00 0.00 0.00 49 1015.4
20260508204524 27 319 9.7 17.7 0.00 0.00 0.00 49 1015.5